TimeCST,TemperatureF,Dew PointF,Humidity,Sea Level PressureIn,VisibilityMPH,Wind Direction,Wind SpeedMPH,Gust SpeedMPH,PrecipitationIn,Events,Conditions,WindDirDegrees,DateUTC
12:53 AM,43.0,39.0,86,29.95,10.0,Calm,Calm,-,N/A,,Clear,0,2013-02-28 06:53:00
1:53 AM,41.0,37.9,89,29.94,7.0,Calm,Calm,-,N/A,,Clear,0,2013-02-28 07:53:00
2:53 AM,39.9,37.0,89,29.94,6.0,Calm,Calm,-,N/A,,Partly Cloudy,0,2013-02-28 08:53:00
3:53 AM,42.1,39.0,89,29.95,10.0,NW,3.5,-,N/A,,Clear,320,2013-02-28 09:53:00
4:53 AM,43.0,37.0,80,29.97,10.0,NW,5.8,-,N/A,,Clear,320,2013-02-28 10:53:00
5:53 AM,43.0,36.0,76,29.99,10.0,NW,6.9,-,N/A,,Clear,320,2013-02-28 11:53:00
6:53 AM,43.0,35.1,74,30.00,10.0,NW,3.5,-,N/A,,Clear,310,2013-02-28 12:53:00
7:53 AM,46.9,33.1,59,30.02,10.0,NW,8.1,-,N/A,,Clear,310,2013-02-28 13:53:00
8:53 AM,50.0,30.9,48,30.01,10.0,NW,15.0,21.9,N/A,,Clear,320,2013-02-28 14:53:00
9:53 AM,53.1,28.9,40,30.01,10.0,NNW,11.5,19.6,N/A,,Clear,340,2013-02-28 15:53:00
10:53 AM,55.9,30.0,37,30.00,10.0,NW,10.4,17.3,N/A,,Clear,310,2013-02-28 16:53:00
11:53 AM,57.9,30.9,36,29.99,10.0,WNW,12.7,20.7,N/A,,Clear,300,2013-02-28 17:53:00
12:53 PM,59.0,30.0,33,29.96,10.0,WNW,12.7,18.4,N/A,,Clear,300,2013-02-28 18:53:00
1:53 PM,57.0,28.0,33,29.95,10.0,WNW,9.2,18.4,N/A,,Clear,300,2013-02-28 19:53:00
2:53 PM,57.0,28.9,34,29.95,10.0,WNW,9.2,-,N/A,,Clear,300,2013-02-28 20:53:00
3:53 PM,55.0,30.0,38,29.96,10.0,NW,8.1,-,N/A,,Clear,320,2013-02-28 21:53:00
4:53 PM,53.1,30.9,43,29.97,10.0,NW,4.6,-,N/A,,Clear,320,2013-02-28 22:53:00
5:53 PM,50.0,32.0,50,29.98,10.0,NW,3.5,-,N/A,,Clear,320,2013-02-28 23:53:00
6:53 PM,48.9,33.1,54,29.99,10.0,NNW,3.5,-,N/A,,Clear,330,2013-03-01 00:53:00
7:53 PM,48.0,32.0,54,29.99,10.0,NW,4.6,-,N/A,,Clear,310,2013-03-01 01:53:00
8:53 PM,48.0,32.0,54,30.01,10.0,NW,4.6,-,N/A,,Clear,320,2013-03-01 02:53:00
9:53 PM,46.0,30.9,56,30.02,10.0,North,6.9,-,N/A,,Clear,350,2013-03-01 03:53:00
10:53 PM,46.0,30.9,56,30.03,10.0,North,5.8,-,N/A,,Clear,360,2013-03-01 04:53:00
11:53 PM,44.1,30.0,58,30.04,10.0,North,8.1,-,N/A,,Clear,350,2013-03-01 05:53:00